• In Austria
  • List of Countries
  • For 7 days
  • Water Temperature
  • Satellite Maps
  • Weather Map
  • News
  • Weather Widgets
  • user-avatar
    Login

    Hourly Weather Baranovichi

    Today, 22 April, Sunday

    Time Temperature Precipitation Wind Pressure Humidity
    00:00 +7°C° 0 mm 4 mps 744 mmHg 69%
    01:00 +7°C° 0 mm 4 mps 744 mmHg 73%
    02:00 +7°C° 0 mm 3 mps 744 mmHg 77%
    03:00 +5°C° 0 mm 3 mps 744 mmHg 79%
    04:00 +5°C° 0 mm 3 mps 744 mmHg 80%
    05:00 +4°C° 0 mm 3 mps 744 mmHg 82%
    06:00 +5°C° 0 mm 3 mps 744 mmHg 77%
    07:00 +8°C° 0 mm 3 mps 744 mmHg 71%
    08:00 +8°C° 0 mm 4 mps 744 mmHg 66%
    09:00 +11°C° 0 mm 4 mps 744 mmHg 58%
    10:00 +13°C° 0 mm 5 mps 744 mmHg 50%
    11:00 +15°C° 0 mm 6 mps 743 mmHg 42%
    12:00 +15°C° 0 mm 6 mps 743 mmHg 41%
    13:00 +16°C° 0 mm 6 mps 743 mmHg 40%
    14:00 +16°C° 0 mm 6 mps 743 mmHg 39%
    15:00 +16°C° 0 mm 6 mps 743 mmHg 41%
    16:00 +16°C° 0 mm 5 mps 743 mmHg 43%
    17:00 +15°C° 0 mm 5 mps 743 mmHg 45%
    18:00 +14°C° 0 mm 4 mps 743 mmHg 51%
    19:00 +12°C° 0 mm 3 mps 743 mmHg 56%
    20:00 +12°C° 0 mm 2 mps 743 mmHg 62%
    21:00 +10°C° 0 mm 2 mps 744 mmHg 65%
    22:00 +9°C° 0 mm 2 mps 744 mmHg 68%
    23:00 +8°C° 0 mm 2 mps 744 mmHg 72%

    Tomorrow, 23 April, Monday

    Time Temperature Precipitation Wind Pressure Humidity
    00:00 +7°C° 0 mm 2 mps 744 mmHg 73%
    01:00 +6°C° 0 mm 2 mps 745 mmHg 74%
    02:00 +6°C° 0 mm 2 mps 745 mmHg 75%
    03:00 +6°C° 0 mm 1 mps 745 mmHg 76%
    04:00 +6°C° 0 mm 1 mps 745 mmHg 77%
    05:00 +5°C° 0 mm 1 mps 745 mmHg 77%
    06:00 +7°C° 0 mm 1 mps 745 mmHg 72%
    07:00 +8°C° 0 mm 1 mps 745 mmHg 67%
    08:00 +10°C° 0 mm 1 mps 746 mmHg 62%
    09:00 +12°C° 0 mm 1 mps 746 mmHg 56%
    10:00 +13°C° 0 mm 1 mps 746 mmHg 51%
    11:00 +15°C° 0 mm 1 mps 745 mmHg 45%
    12:00 +16°C° 0 mm 1 mps 745 mmHg 43%
    13:00 +16°C° 0 mm 1 mps 745 mmHg 40%
    14:00 +17°C° 0 mm 2 mps 745 mmHg 38%
    15:00 +17°C° 0 mm 2 mps 744 mmHg 39%
    16:00 +17°C° 0 mm 2 mps 744 mmHg 40%
    17:00 +17°C° 0 mm 2 mps 743 mmHg 41%
    18:00 +16°C° 0 mm 2 mps 743 mmHg 46%
    19:00 +14°C° 0 mm 2 mps 743 mmHg 51%
    20:00 +13°C° 0 mm 2 mps 742 mmHg 57%
    21:00 +12°C° 0.2 mm 2 mps 742 mmHg 61%
    22:00 +12°C° 0.2 mm 2 mps 742 mmHg 65%
    23:00 +10°C° 0.2 mm 2 mps 742 mmHg 70%

    Day after tomorrow, 24 April, Tuesday

    Time Temperature Precipitation Wind Pressure Humidity
    00:00 +10°C° 0.1 mm 2 mps 741 mmHg 73%
    01:00 +10°C° 0.1 mm 2 mps 741 mmHg 76%
    02:00 +10°C° 0.1 mm 3 mps 741 mmHg 79%
    03:00 +10°C° 0 mm 2 mps 741 mmHg 81%
    04:00 +10°C° 0 mm 2 mps 741 mmHg 82%
    05:00 +9°C° 0 mm 2 mps 741 mmHg 84%
    06:00 +10°C° 0.2 mm 3 mps 741 mmHg 84%
    07:00 +10°C° 0.2 mm 4 mps 741 mmHg 84%
    08:00 +9°C° 0.2 mm 5 mps 741 mmHg 84%
    09:00 +10°C° 0 mm 5 mps 742 mmHg 77%
    10:00 +11°C° 0 mm 6 mps 742 mmHg 69%
    11:00 +13°C° 0 mm 6 mps 742 mmHg 62%
    12:00 +14°C° 0 mm 6 mps 742 mmHg 60%
    13:00 +14°C° 0 mm 6 mps 743 mmHg 58%
    14:00 +14°C° 0 mm 6 mps 743 mmHg 56%
    15:00 +14°C° 0 mm 6 mps 743 mmHg 57%
    16:00 +14°C° 0 mm 6 mps 743 mmHg 59%
    17:00 +13°C° 0 mm 5 mps 743 mmHg 60%
    18:00 +12°C° 0 mm 4 mps 743 mmHg 65%
    19:00 +11°C° 0 mm 3 mps 743 mmHg 71%
    20:00 +9°C° 0 mm 2 mps 743 mmHg 76%
    21:00 +9°C° 0.1 mm 2 mps 743 mmHg 78%
    22:00 +9°C° 0.1 mm 2 mps 743 mmHg 79%
    23:00 +9°C° 0.1 mm 2 mps 743 mmHg 81%

    25 April, Wednesday

    Time Temperature Precipitation Wind Pressure Humidity
    00:00 +9°C° 0.2 mm 2 mps 743 mmHg 83%
    01:00 +9°C° 0.2 mm 3 mps 743 mmHg 85%
    02:00 +9°C° 0.2 mm 3 mps 742 mmHg 87%
    03:00 +10°C° 0.2 mm 4 mps 742 mmHg 86%
    04:00 +10°C° 0.2 mm 4 mps 742 mmHg 86%
    05:00 +9°C° 0.2 mm 5 mps 741 mmHg 85%
    06:00 +10°C° 0 mm 5 mps 741 mmHg 84%
    07:00 +11°C° 0 mm 6 mps 741 mmHg 82%
    08:00 +11°C° 0 mm 6 mps 741 mmHg 80%
    09:00 +13°C° 0.1 mm 6 mps 742 mmHg 78%
    10:00 +13°C° 0.1 mm 6 mps 742 mmHg 76%
    11:00 +14°C° 0.1 mm 5 mps 742 mmHg 73%
    12:00 +14°C° 0.1 mm 5 mps 742 mmHg 72%
    13:00 +14°C° 0.1 mm 5 mps 742 mmHg 72%
    14:00 +15°C° 0.1 mm 5 mps 741 mmHg 71%
    15:00 +15°C° 0.1 mm 4 mps 741 mmHg 72%
    16:00 +16°C° 0.1 mm 3 mps 741 mmHg 72%
    17:00 +16°C° 0.1 mm 3 mps 740 mmHg 73%
    18:00 +15°C° 0.1 mm 2 mps 740 mmHg 78%
    19:00 +14°C° 0.1 mm 2 mps 739 mmHg 84%
    20:00 +13°C° 0.1 mm 1 mps 739 mmHg 89%
    21:00 +13°C° 0.4 mm 2 mps 738 mmHg 90%
    22:00 +13°C° 0.4 mm 2 mps 738 mmHg 90%
    23:00 +12°C° 0.4 mm 3 mps 737 mmHg 91%

    26 April, Thursday

    Time Temperature Precipitation Wind Pressure Humidity
    00:00 +12°C° 0.1 mm 3 mps 737 mmHg 90%
    01:00 +12°C° 0.1 mm 4 mps 737 mmHg 89%
    02:00 +12°C° 0.1 mm 4 mps 737 mmHg 89%
    03:00 +11°C° 0.1 mm 4 mps 737 mmHg 90%
    04:00 +11°C° 0.1 mm 4 mps 738 mmHg 90%
    05:00 +9°C° 0.1 mm 5 mps 738 mmHg 91%
    06:00 +9°C° 0 mm 5 mps 739 mmHg 89%
    07:00 +8°C° 0 mm 5 mps 740 mmHg 86%
    08:00 +8°C° 0 mm 5 mps 740 mmHg 83%
    09:00 +10°C° 0 mm 4 mps 741 mmHg 76%
    10:00 +11°C° 0 mm 4 mps 742 mmHg 68%
    11:00 +12°C° 0 mm 4 mps 742 mmHg 61%
    12:00 +13°C° 0 mm 3 mps 742 mmHg 57%
    13:00 +14°C° 0 mm 3 mps 743 mmHg 52%
    14:00 +16°C° 0 mm 3 mps 743 mmHg 48%
    15:00 +16°C° 0 mm 3 mps 743 mmHg 48%
    16:00 +16°C° 0 mm 3 mps 742 mmHg 49%
    17:00 +16°C° 0 mm 3 mps 742 mmHg 49%
    18:00 +14°C° 0 mm 2 mps 743 mmHg 56%
    19:00 +13°C° 0 mm 2 mps 743 mmHg 62%
    20:00 +10°C° 0 mm 2 mps 743 mmHg 69%
    21:00 +10°C° 0 mm 2 mps 743 mmHg 71%
    22:00 +10°C° 0 mm 2 mps 743 mmHg 73%
    23:00 +10°C° 0 mm 2 mps 743 mmHg 75%

    27 April, Friday

    Time Temperature Precipitation Wind Pressure Humidity
    00:00 +10°C° 0 mm 2 mps 743 mmHg 77%
    01:00 +9°C° 0 mm 2 mps 743 mmHg 79%
    02:00 +9°C° 0 mm 2 mps 743 mmHg 81%
    03:00 +9°C° 0.2 mm 2 mps 743 mmHg 84%
    04:00 +9°C° 0.2 mm 2 mps 743 mmHg 87%
    05:00 +9°C° 0.2 mm 2 mps 743 mmHg 89%
    06:00 +9°C° 0.8 mm 2 mps 743 mmHg 90%
    07:00 +9°C° 0.8 mm 2 mps 743 mmHg 91%
    08:00 +9°C° 0.8 mm 2 mps 743 mmHg 92%
    09:00 +10°C° 0.6 mm 2 mps 743 mmHg 89%
    10:00 +10°C° 0.6 mm 2 mps 743 mmHg 86%
    11:00 +10°C° 0.6 mm 2 mps 743 mmHg 83%
    12:00 +12°C° 0.2 mm 2 mps 743 mmHg 79%
    13:00 +12°C° 0.2 mm 3 mps 743 mmHg 74%
    14:00 +12°C° 0.2 mm 3 mps 743 mmHg 69%
    15:00 +12°C° 0 mm 3 mps 743 mmHg 65%
    16:00 +13°C° 0 mm 3 mps 743 mmHg 62%
    17:00 +13°C° 0 mm 3 mps 743 mmHg 59%
    18:00 +11°C° 0 mm 3 mps 743 mmHg 64%
    19:00 +10°C° 0 mm 2 mps 743 mmHg 69%
    20:00 +9°C° 0 mm 2 mps 744 mmHg 74%
    21:00 +8°C° 0 mm 2 mps 744 mmHg 76%
    22:00 +7°C° 0 mm 2 mps 744 mmHg 78%
    23:00 +6°C° 0 mm 2 mps 745 mmHg 80%
    Show more